EW3861 Weather Reports


time (UTC)temp
C
wind
direction
speed
KPH
gust
KPH
rain 1hr
cm
rain 24hr
cm
rain mn
cm
humidity
%
barometer
mb
20260903193054 25 65 0.0 0.0 0.00 0.00 0.00 87 1010.7
20260903191551 24 65 0.0 0.0 0.00 0.00 0.00 87 1010.9
20260903190050 24 65 0.0 0.0 0.00 0.00 0.00 89 1011.0
20260903184549 24 194 0.0 0.0 0.00 0.00 0.00 89 1011.1
20260903183047 24 194 0.0 0.0 0.00 0.00 0.00 89 1011.1
20260903181546 24 194 0.0 0.0 0.00 0.00 0.00 88 1011.4
20260903180049 25 195 0.0 0.0 0.00 0.00 0.00 87 1011.4
20260903174545 25 195 0.0 0.0 0.00 0.00 0.00 87 1011.4
20260903173043 24 199 0.0 0.0 0.00 0.00 0.00 88 1011.4
20260903171538 23 239 0.0 0.0 0.00 0.00 0.00 93 1011.6
20260903170035 22 227 0.0 0.0 0.00 0.00 0.00 96 1011.7
20260903164530 22 225 0.0 0.0 0.00 0.00 0.00 97 1011.5
20260903163029 21 225 0.0 0.0 0.00 0.00 0.00 97 1011.4
20260903161531 21 225 0.0 0.0 0.00 0.00 0.00 98 1011.5
20260903160051 21 225 0.0 0.0 0.00 0.00 0.00 98 1011.7
20260903154523 21 225 0.0 0.0 0.00 0.00 0.00 98 1011.9
20260903153022 21 225 0.0 0.0 0.00 0.00 0.00 98 1012.2
20260903151523 21 225 0.0 0.0 0.00 0.00 0.00 98 1012.3
20260903150025 21 224 0.0 0.0 0.00 0.00 0.00 98 1012.4
20260903144514 20 224 0.0 0.0 0.00 0.00 0.00 98 1012.7
20260903143021 20 223 0.0 0.0 0.00 0.00 0.00 98 1012.8
20260903141514 20 224 0.0 0.0 0.00 0.00 0.00 98 1012.9
20260903140117 20 223 0.0 0.0 0.00 0.00 0.00 98 1013.2
20260903134531 20 222 0.0 0.0 0.00 0.00 0.00 98 1013.2
20260903133115 19 222 0.0 0.0 0.00 0.00 0.00 98 1013.3
20260903131525 18 222 0.0 0.0 0.00 0.00 0.00 98 1013.1
20260903130001 18 222 0.0 0.0 0.00 0.00 0.00 97 1013.3
20260903124554 18 222 0.0 0.0 0.00 0.00 0.00 97 1013.3
20260903123006 18 222 0.0 0.0 0.00 0.00 0.00 97 1013.5
20260903121549 18 222 0.0 0.0 0.00 0.00 0.00 97 1013.7
20260903120005 18 222 0.0 0.0 0.00 0.00 0.00 97 1013.9
20260903114553 17 222 0.0 0.0 0.00 0.00 0.00 97 1014.0
20260903113007 17 225 0.0 0.0 0.00 0.00 0.00 97 1014.1
20260903111602 17 225 0.0 0.0 0.00 0.00 0.00 97 1014.2
20260903110014 17 274 0.0 0.0 0.00 0.00 0.00 97 1014.1
20260903104612 17 274 0.0 0.0 0.00 0.00 0.00 96 1013.8
20260903103015 17 274 0.0 0.0 0.00 0.00 0.00 96 1013.7
20260903101605 16 274 0.0 0.0 0.00 0.00 0.00 96 1013.7
20260903100009 16 277 0.0 0.0 0.00 0.00 0.00 95 1013.6
20260903094610 16 277 0.0 0.0 0.00 0.00 0.00 95 1013.9
20260903093019 16 277 0.0 0.0 0.00 0.00 0.00 95 1014.0
20260903091602 16 277 0.0 0.0 0.00 0.00 0.00 94 1014.1
20260903090024 16 277 0.0 0.0 0.00 0.00 0.00 94 1014.0
20260903084630 16 277 0.0 0.0 0.00 0.00 0.00 93 1014.3
20260903083032 16 277 0.0 0.0 0.00 0.00 0.00 93 1014.9
20260903081617 16 277 0.0 0.0 0.00 0.00 0.00 93 1015.0
20260903080031 16 277 0.0 0.0 0.00 0.00 0.00 92 1014.8
20260903074633 16 277 0.0 0.0 0.00 0.00 0.00 92 1015.0
20260903073027 16 277 0.0 0.0 0.00 0.00 0.00 92 1015.2
20260903071610 16 277 0.0 0.0 0.00 0.00 0.00 91 1015.5
20260903070011 16 277 0.0 0.0 0.00 0.00 0.00 91 1015.7
20260903064554 16 277 0.0 0.0 0.00 0.00 0.00 92 1016.1
20260903063011 16 277 0.0 0.0 0.00 0.00 0.00 92 1016.2
20260903061605 16 277 0.0 0.0 0.00 0.00 0.00 92 1016.6
20260903060012 16 277 0.0 0.0 0.00 0.00 0.00 92 1016.8
20260903054613 16 277 0.0 0.0 0.00 0.00 0.00 91 1017.1
20260903053016 16 277 0.0 0.0 0.00 0.00 0.00 91 1017.2
20260903051602 16 277 0.0 0.0 0.00 0.00 0.00 91 1017.4
20260903050021 16 277 0.0 0.0 0.00 0.00 0.00 91 1017.6
20260903044610 16 277 0.0 0.0 0.00 0.00 0.00 92 1017.8
20260903043022 16 277 0.0 0.0 0.00 0.00 0.00 91 1017.6
20260903041604 16 277 0.0 0.0 0.00 0.00 0.00 92 1017.5
20260903040059 16 277 0.0 0.0 0.00 0.00 0.00 91 1017.3
20260903034601 16 277 0.0 0.0 0.00 0.00 0.00 91 1017.6
20260903033100 16 277 0.0 0.0 0.00 0.00 0.00 91 1018.0
20260903031629 16 277 0.0 0.0 0.00 0.00 0.00 91 1018.2
20260903030056 16 277 0.0 0.0 0.00 0.00 0.00 91 1018.0
20260903024556 16 277 0.0 0.0 0.00 0.00 0.00 90 1018.5
20260903023051 16 277 0.0 0.0 0.00 0.00 0.00 88 1018.6
20260903021551 16 277 0.0 0.0 0.00 0.00 0.00 88 1018.5
20260903020053 16 277 0.0 0.0 0.00 0.00 0.00 87 1018.4
20260903014556 17 277 0.0 0.0 0.00 0.00 0.00 86 1018.2
20260903013051 17 277 0.0 0.0 0.00 0.00 0.00 85 1018.4
20260903011556 17 277 0.0 0.0 0.00 0.00 0.00 85 1018.5
20260903010051 17 277 0.0 0.0 0.00 0.00 0.00 84 1018.6
20260903004550 17 277 0.0 0.0 0.00 0.00 0.00 83 1018.7
20260903003052 18 277 0.0 0.0 0.00 0.00 0.00 82 1018.8
20260903001548 18 277 0.0 0.0 0.00 0.00 0.00 81 1018.9
20260903000047 18 277 0.0 0.0 0.00 0.00 0.00 80 1019.1
20260902234557 18 277 0.0 0.0 0.00 0.00 0.00 77 1019.5
20260902233047 19 277 0.0 0.0 0.00 0.00 0.00 75 1019.3
20260902231546 20 277 0.0 0.0 0.00 0.00 0.00 75 1019.3
20260902230049 20 277 0.0 0.0 0.00 0.00 0.00 74 1019.6
20260902224546 20 277 0.0 0.0 0.00 0.00 0.00 72 1019.5
20260902223047 21 277 0.0 0.0 0.00 0.00 0.00 72 1019.5
20260902221544 21 277 0.0 0.0 0.00 0.00 0.00 70 1019.4
20260902220045 21 277 0.0 0.0 0.00 0.00 0.00 69 1019.3
20260902214543 22 277 0.0 0.0 0.00 0.00 0.00 69 1018.8
20260902213045 22 277 0.0 0.0 0.00 0.00 0.00 69 1018.8
20260902211548 22 292 0.0 0.0 0.00 0.00 0.00 66 1018.8
20260902210047 23 244 0.0 0.0 0.00 0.00 0.00 68 1019.1
20260902204542 23 244 0.0 0.0 0.00 0.00 0.00 63 1019.3
20260902203055 24 244 0.0 0.0 0.00 0.00 0.00 60 1019.3
20260902201544 24 242 0.0 0.0 0.00 0.00 0.00 57 1019.3
20260902200052 25 242 0.0 0.0 0.00 0.00 0.00 57 1019.2
20260902194538 25 240 0.0 0.0 0.00 0.00 0.00 57 1019.5